Topeka, KS

9:22 AM CDT on June 29, 2017 (GMT -0500)
Billard Municipal

Weather History for KTOP - October, 2010

Change the Weather History Date:

Sunday, October 10, 2010

  Actual Average Record
Temperature  
Mean Temperature 65 °F 58 °F  
Max Temperature 82 °F 71 °F 95 °F (1963)
Min Temperature 47 °F 47 °F 27 °F (1925)
Degree Days  
Heating Degree Days 0 8  
Month to date heating degree days 47 65  
Since 1 July heating degree days 71 132  
Cooling Degree Days 0 1  
Month to date cooling degree days 12 16  
Year to date cooling degree days 1843 1409  
Growing Degree Days 14 (Base 50)    
Moisture  
Dew Point 51 °F    
Average Humidity 63    
Maximum Humidity 93    
Minimum Humidity 33    
Precipitation  
Precipitation 0.08 in 0.10 in 3.82 in (1912)
Month to date precipitation 0.08 1.10  
Year to date precipitation 33.82 31.33  
Snow  
Snow 0.00 in 0.00 in T in (1932)
Month to date snowfall 0.0 0.0  
Year to date snowfall 21.5 11.3  
Since 1 July snowfall 0.0 0.0  
Snow Depth 0.00 in    
Sea Level Pressure  
Sea Level Pressure 29.94 in    
Wind  
Wind Speed 1 mph (SW)    
Max Wind Speed 28 mph    
Max Gust Speed 36 mph    
Visibility 5 miles    
Events Fog , Rain , Thunderstorm    
T = Trace of Precipitation, MM = Missing Value Source: NWS Daily Summary

Daily Weather History Graph

Daily Weather History Graph

Search for Another Location

Airport or City:

Trip Planner

Search our weather history database for the weather conditions in past years. The results will help you decide how hot, cold, wet, or windy it might be!

Date:

Astronomy

Oct. 10, 2010 Rise Set
Actual Time 7:27 AM CDT 6:51 PM CDT
Civil Twilight 7:00 AM CDT 7:17 PM CDT
Nautical Twilight 6:29 AM CDT 7:48 PM CDT
Astronomical Twilight 5:58 AM CDT 8:19 PM CDT
Moon 10:57 AM CDT (10/10) 8:37 PM CDT (10/10)
Length of Visible Light 12h 17m
Length of Day
11h 24m
Waxing Crescent, 12% of the Moon is Illuminated
Oct 10
Waxing Crescent
Oct 14
First Quarter
Oct 22
Full
Oct 30
Last Quarter
Nov 5
New

Hourly Weather History & Observations

Time (CDT) Temp. Dew Point Humidity Pressure Visibility Wind Dir Wind Speed Gust Speed Precip Events Conditions
12:53 AM 55.0 °F 52.0 °F 89% 29.94 in 9.0 mi Calm Calm - N/A   Clear
1:53 AM 55.0 °F 52.0 °F 89% 29.94 in 3.0 mi Calm Calm - N/A   Clear
2:11 AM 51.8 °F 48.2 °F 88% 29.96 in 1.2 mi Calm Calm - N/A   Partly Cloudy
2:14 AM 51.8 °F 48.2 °F 88% 29.96 in 0.5 mi Calm Calm - N/A Fog Fog
2:21 AM 53.6 °F 50.0 °F 88% 29.96 in 1.0 mi Calm Calm - N/A   Clear
2:24 AM 53.6 °F 50.0 °F 88% 29.96 in 4.0 mi Calm Calm - N/A   Clear
2:53 AM 54.0 °F 51.1 °F 90% 29.94 in 9.0 mi Calm Calm - N/A   Clear
3:09 AM 51.8 °F 50.0 °F 94% 29.96 in 1.2 mi Calm Calm - N/A   Clear
3:11 AM 51.8 °F 50.0 °F 94% 29.96 in 0.5 mi Calm Calm - N/A Fog Fog
3:22 AM 51.8 °F 48.2 °F 88% 29.95 in 0.2 mi Calm Calm - N/A Fog Fog
3:35 AM 53.6 °F 51.8 °F 94% 29.95 in 0.2 mi Calm Calm - N/A Fog Fog
3:38 AM 53.6 °F 51.8 °F 94% 29.95 in 0.8 mi Calm Calm - N/A   Mist
3:40 AM 53.6 °F 51.8 °F 94% 29.96 in 2.0 mi Calm Calm - N/A   Scattered Clouds
3:53 AM 52.0 °F 48.9 °F 89% 29.94 in 10.0 mi Calm Calm - N/A   Partly Cloudy
4:15 AM 51.8 °F 48.2 °F 88% 29.95 in 0.8 mi Calm Calm - N/A   Clear
4:23 AM 51.8 °F 48.2 °F 88% 29.95 in 0.2 mi Calm Calm - N/A Fog Fog
4:34 AM 48.2 °F 46.4 °F 93% 29.95 in 0.2 mi Calm Calm - N/A Fog Fog
4:48 AM 50.0 °F 48.2 °F 94% 29.96 in 0.8 mi Calm Calm - N/A   Mist
4:53 AM 52.0 °F 48.9 °F 89% 29.94 in 0.5 mi Calm Calm - N/A Fog Fog
5:04 AM 50.0 °F 48.2 °F 94% 29.96 in 0.5 mi Calm Calm - N/A Fog Fog
5:19 AM 50.0 °F 48.2 °F 94% 29.97 in 1.0 mi Calm Calm - N/A   Clear
5:22 AM 50.0 °F 48.2 °F 94% 29.97 in 3.0 mi Calm Calm - N/A   Clear
5:53 AM 51.1 °F 48.0 °F 89% 29.96 in 8.0 mi Calm Calm - N/A   Clear
6:14 AM 50.0 °F 48.2 °F 94% 29.97 in 2.5 mi Calm Calm - N/A   Clear
6:31 AM 50.0 °F 46.4 °F 87% 29.97 in 9.0 mi Calm Calm - N/A   Clear
6:53 AM 48.9 °F 46.9 °F 93% 29.96 in 9.0 mi Calm Calm - N/A   Clear
7:53 AM 48.0 °F 45.0 °F 89% 29.97 in 6.0 mi Calm Calm - N/A   Clear
8:53 AM 55.0 °F 50.0 °F 83% 29.97 in 10.0 mi Calm Calm - N/A   Clear
9:53 AM 62.1 °F 51.1 °F 67% 29.97 in 10.0 mi Calm Calm - N/A   Clear
10:53 AM 69.1 °F 51.1 °F 53% 29.96 in 10.0 mi South 3.5 mph - N/A   Clear
11:53 AM 75.0 °F 51.1 °F 43% 29.95 in 10.0 mi South 4.6 mph - N/A   Clear
12:53 PM 78.1 °F 51.1 °F 39% 29.94 in 10.0 mi Calm Calm - N/A   Clear
1:53 PM 81.0 °F 48.0 °F 31% 29.91 in 10.0 mi Variable 3.5 mph - N/A   Clear
2:53 PM 80.1 °F 48.0 °F 32% 29.88 in 10.0 mi WNW 3.5 mph - N/A   Clear
3:53 PM 80.1 °F 48.9 °F 34% 29.87 in 10.0 mi West 3.5 mph - N/A   Clear
4:53 PM 79.0 °F 50.0 °F 36% 29.87 in 6.0 mi Calm Calm - N/A   Haze
5:53 PM 75.0 °F 48.9 °F 40% 29.86 in 10.0 mi Calm Calm - N/A   Scattered Clouds
6:15 PM 66.2 °F 53.6 °F 64% 29.92 in 4.0 mi SSW 26.5 mph 35.7 mph 0.00 in Rain , Thunderstorm Thunderstorms and Rain
6:28 PM 62.6 °F 55.4 °F 77% 29.93 in 2.5 mi SW 13.8 mph 31.1 mph 0.04 in Rain , Thunderstorm Heavy Thunderstorms and Rain
6:31 PM 62.6 °F 53.6 °F 72% 29.94 in 3.0 mi SSW 11.5 mph 23.0 mph 0.05 in Rain , Thunderstorm Thunderstorms and Rain
6:53 PM 62.1 °F 55.0 °F 78% 29.92 in 10.0 mi South 4.6 mph - 0.07 in   Overcast
7:53 PM 60.1 °F 57.9 °F 93% 29.90 in 10.0 mi NW 4.6 mph - 0.01 in   Overcast
8:53 PM 60.1 °F 57.0 °F 90% 29.88 in 10.0 mi Calm Calm - N/A   Mostly Cloudy
9:53 PM 60.1 °F 57.9 °F 93% 29.89 in 9.0 mi Calm Calm - N/A   Clear
10:53 PM 59.0 °F 57.0 °F 93% 29.89 in 7.0 mi Calm Calm - N/A   Clear
11:53 PM 57.0 °F 55.0 °F 93% 29.89 in 9.0 mi Calm Calm - N/A   Clear